| time (UTC) | temp C | wind direction | speed KPH | gust KPH | rain 1hr cm | rain 24hr cm | rain mn cm | humidity % | barometer mb |
| 20260504044552 | 8 | 13 | 24.1 | 41.8 | 0.00 | 0.00 | 0.00 | 50 | 1002.6 |
| 20260504043009 | 8 | 335 | 20.9 | 32.2 | 0.00 | 0.00 | 0.00 | 48 | 1001.5 |
| 20260504041519 | 8 | 334 | 6.4 | 11.3 | 0.00 | 0.00 | 0.00 | 48 | 1001.4 |
| 20260504040030 | 10 | 360 | 12.9 | 24.1 | 0.00 | 0.00 | 0.00 | 44 | 1001.4 |
| 20260504034554 | 11 | 329 | 22.5 | 32.2 | 0.00 | 0.00 | 0.00 | 44 | 1001.1 |
| 20260504033101 | 11 | 317 | 19.3 | 29.0 | 0.00 | 0.00 | 0.00 | 44 | 1000.8 |
| 20260504033004 | 11 | 313 | 19.3 | 29.0 | 0.00 | 0.00 | 0.00 | 43 | 1000.6 |
| 20260504031516 | 11 | 327 | 20.9 | 30.6 | 0.00 | 0.00 | 0.00 | 42 | 1000.3 |
| 20260504030031 | 11 | 328 | 22.5 | 37.0 | 0.00 | 0.00 | 0.00 | 42 | 1000.3 |
| 20260504024544 | 12 | 309 | 25.7 | 37.0 | 0.00 | 0.00 | 0.00 | 42 | 1000.2 |
| 20260504023055 | 12 | 329 | 32.2 | 41.8 | 0.00 | 0.00 | 0.00 | 41 | 1000.0 |
| 20260504021508 | 12 | 327 | 25.7 | 43.5 | 0.00 | 0.00 | 0.00 | 40 | 999.7 |
| 20260504020023 | 12 | 315 | 33.8 | 49.9 | 0.00 | 0.00 | 0.00 | 39 | 999.7 |
| 20260504014538 | 12 | 325 | 33.8 | 59.5 | 0.00 | 0.00 | 0.00 | 39 | 999.7 |
| 20260504013051 | 13 | 328 | 41.8 | 57.9 | 0.00 | 0.00 | 0.00 | 39 | 999.5 |
| 20260504011505 | 15 | 335 | 32.2 | 56.3 | 0.00 | 0.00 | 0.00 | 38 | 999.0 |
| 20260504010023 | 15 | 335 | 37.0 | 54.7 | 0.00 | 0.00 | 0.00 | 38 | 998.6 |
| 20260504004531 | 15 | 355 | 45.1 | 67.6 | 0.00 | 0.00 | 0.00 | 36 | 998.6 |
| 20260504003049 | 16 | 323 | 41.8 | 59.5 | 0.00 | 0.00 | 0.00 | 30 | 998.3 |
| 20260504001559 | 17 | 323 | 38.6 | 53.1 | 0.00 | 0.00 | 0.00 | 30 | 998.0 |
| 20260504001501 | 17 | 317 | 38.6 | 53.1 | 0.00 | 0.00 | 0.00 | 30 | 997.9 |
| 20260504000014 | 17 | 304 | 43.5 | 57.9 | 0.00 | 0.00 | 0.00 | 29 | 997.8 |
| 20260503234527 | 17 | 323 | 45.1 | 61.2 | 0.00 | 0.00 | 0.00 | 30 | 997.8 |
| 20260503233041 | 17 | 323 | 45.1 | 66.0 | 0.00 | 0.00 | 0.00 | 30 | 997.7 |
| 20260503231549 | 18 | 327 | 46.7 | 61.2 | 0.00 | 0.00 | 0.00 | 28 | 997.4 |
| 20260503230003 | 18 | 348 | 41.8 | 62.8 | 0.00 | 0.00 | 0.00 | 26 | 996.6 |
| 20260503224514 | 20 | 327 | 45.1 | 59.5 | 0.00 | 0.00 | 0.00 | 27 | 996.4 |
| 20260503223025 | 20 | 319 | 41.8 | 61.2 | 0.00 | 0.00 | 0.00 | 27 | 996.4 |
| 20260503221539 | 20 | 341 | 45.1 | 57.9 | 0.00 | 0.00 | 0.00 | 28 | 996.2 |
| 20260503220059 | 21 | 360 | 37.0 | 54.7 | 0.00 | 0.00 | 0.00 | 27 | 996.1 |
| 20260503214516 | 21 | 320 | 40.2 | 56.3 | 0.00 | 0.00 | 0.00 | 28 | 995.9 |
| 20260503213027 | 20 | 314 | 40.2 | 54.7 | 0.00 | 0.00 | 0.00 | 33 | 995.9 |
| 20260503211546 | 21 | 309 | 38.6 | 54.7 | 0.00 | 0.00 | 0.00 | 32 | 995.9 |
| 20260503210058 | 21 | 294 | 38.6 | 51.5 | 0.00 | 0.00 | 0.00 | 31 | 995.9 |
| 20260503204516 | 21 | 306 | 30.6 | 54.7 | 0.00 | 0.00 | 0.00 | 33 | 996.1 |
| 20260503203032 | 21 | 293 | 40.2 | 62.8 | 0.00 | 0.00 | 0.00 | 30 | 996.1 |
| 20260503201543 | 22 | 304 | 32.2 | 49.9 | 0.00 | 0.00 | 0.00 | 34 | 996.1 |
| 20260503200052 | 21 | 296 | 32.2 | 53.1 | 0.00 | 0.00 | 0.00 | 32 | 996.3 |
| 20260503194511 | 22 | 292 | 30.6 | 49.9 | 0.00 | 0.00 | 0.00 | 31 | 996.8 |
| 20260503193018 | 21 | 270 | 30.6 | 49.9 | 0.00 | 0.00 | 0.00 | 31 | 997.2 |
| 20260503191534 | 21 | 305 | 37.0 | 51.5 | 0.00 | 0.00 | 0.00 | 31 | 997.2 |
| 20260503190048 | 22 | 267 | 29.0 | 45.1 | 0.00 | 0.00 | 0.00 | 31 | 997.4 |
| 20260503184624 | 21 | 292 | 32.2 | 43.5 | 0.00 | 0.00 | 0.00 | 29 | 998.0 |
| 20260503183012 | 21 | 286 | 30.6 | 41.8 | 0.00 | 0.00 | 0.00 | 32 | 998.5 |
| 20260503181532 | 20 | 292 | 24.1 | 41.8 | 0.00 | 0.00 | 0.00 | 32 | 998.5 |
| 20260503180011 | 20 | 281 | 25.7 | 43.5 | 0.00 | 0.00 | 0.00 | 34 | 999.1 |
| 20260503174532 | 20 | 278 | 29.0 | 38.6 | 0.00 | 0.00 | 0.00 | 33 | 999.1 |
| 20260503173037 | 20 | 297 | 20.9 | 33.8 | 0.00 | 0.00 | 0.00 | 36 | 999.1 |
| 20260503171611 | 19 | 298 | 24.1 | 33.8 | 0.00 | 0.00 | 0.00 | 35 | 999.1 |
| 20260503081506 | 3 | 124 | 8.0 | 11.3 | 0.00 | 0.00 | 0.00 | 63 | 1004.8 |
| 20260503071611 | 5 | 131 | 9.7 | 12.9 | 0.00 | 0.00 | 0.00 | 60 | 1005.3 |
| 20260503060104 | 6 | 132 | 6.4 | 11.3 | 0.00 | 0.00 | 0.00 | 55 | 1005.7 |
| 20260503054503 | 5 | 105 | 6.4 | 11.3 | 0.00 | 0.00 | 0.00 | 56 | 1005.7 |
| 20260503053028 | 6 | 94 | 6.4 | 9.7 | 0.00 | 0.00 | 0.00 | 55 | 1005.8 |